Location: Dugenta
(41.1333°N, 14.4500°E)
Time: 14:59:43
(UTC+00:00)

CSL-04 Rocket - Pass Details

Date: 03 March 2021
Orbit: 805 x 861 km, 98.9° (Epoch: 13 April)

Event Time Altitude Azimuth Distance (km) Brightness Sun altitude
Rises 18:19:33 0° 168° (SSE) 3,422 6.7 -16.6°
Reaches altitude 10° 18:21:55 10° 170° (S) 2,489 6.0 -17.0°
Maximum altitude 18:27:27 78° 256° (WSW) 880 3.8 -18.1°
Drops below altitude 10° 18:33:00 10° 343° (NNW) 2,487 6.4 -19.1°
Sets 18:35:23 0° 345° (NNW) 3,420 7.2 -19.6°
